******************************************************************************* JPL/HORIZONS 113P/Spitaler 2025-Dec-12 21:13:58 Rec #:90000993 (+COV) Soln.date: 2024-Apr-29_13:12:26 # obs: 879 (1890-2023) IAU76/J2000 helio. ecliptic osc. elements (au, days, deg., period=Julian yrs): EPOCH= 2457229.5 ! 2015-Jul-26.0000000 (TDB) RMSW= n.a. EC= .4245162054144091 QR= 2.118865183426176 TP= 2457136.2635948686 OM= 14.38509325254782 W= 50.02664978043313 IN= 5.776267171432991 A= 3.681885056297689 MA= 13.00721308067549 ADIST= 5.244904929169203 PER= 7.0650223760059 N= .139507879 ANGMOM= .029885932 DAN= 2.37158 DDN= 4.15021 L= 64.26808819999999 B= 4.4235024 MOID= 1.13795996 TP= 2015-Apr-23.7635948686 Comet physical (GM= km^3/s^2; RAD= km): GM= n.a. RAD= 1.1 M1= 14.7 M2= n.a. k1= 8. k2= n.a. PHCOF= n.a. Comet non-gravitational force model (AMRAT=m^2/kg;A1-A3=au/d^2;DT=days;R0=au): AMRAT= 0. DT= 0. A1= 0. A2= -3.60836298205E-11 A3= 0. Standard model: ALN= .1112620426 NK= 4.6142 NM= 2.15 NN= 5.093 R0= 2.808 COMET comments 1: soln ref.= JPL#81, data arc: 1890-11-17 to 2023-04-15 2: k1=8.; ******************************************************************************* ******************************************************************************* Ephemeris / WWW_USER Fri Dec 12 21:13:58 2025 Pasadena, USA / Horizons ******************************************************************************* Target body name: 113P/Spitaler {source: JPL#81} Center body name: Earth (399) {source: DE441} Center-site name: GEOCENTRIC ******************************************************************************* Start time : A.D. 2029-Jul-09 00:00:00.0000 UT Stop time : A.D. 2029-Jul-14 00:00:00.0000 UT Step-size : 180 minutes ******************************************************************************* Target pole/equ : undefined Target radii : 1.1 km Center geodetic : 0.0, 0.0, -6378.137 {E-lon(deg),Lat(deg),Alt(km)} Center cylindric: 0.0, 0.0, 0.0 {E-lon(deg),Dxy(km),Dz(km)} Center pole/equ : ITRF93 {East-longitude positive} Center radii : 6378.137, 6378.137, 6356.752 km {Equator_a, b, pole_c} Target primary : Sun Vis. interferer : MOON (R_eq= 1737.400) km {source: DE441} Rel. light bend : Sun {source: DE441} Rel. lght bnd GM: 1.3271E+11 km^3/s^2 Small-body perts: Yes {source: SB441-N16} Atmos refraction: NO (AIRLESS) RA format : HMS Time format : CAL Calendar mode : Mixed Julian/Gregorian EOP file : eop.251212.p260310 EOP coverage : DATA-BASED 1962-JAN-20 TO 2025-DEC-12. PREDICTS-> 2026-MAR-09 Units conversion: 1 au= 149597870.700 km, c= 299792.458 km/s, 1 day= 86400.0 s Table cut-offs 1: Elevation (-90.0deg=NO ),Airmass (>38.000=NO), Daylight (NO ) Table cut-offs 2: Solar elongation ( 0.0,180.0=NO ),Local Hour Angle( 0.0=NO ) Table cut-offs 3: RA/DEC angular rate ( 0.0=NO ) ******************************************************************************* Initial IAU76/J2000 heliocentric ecliptic osculating elements (au, days, deg.): EPOCH= 2457229.5 ! 2015-Jul-26.0000000 (TDB) RMSW= n.a. EC= .4245162054144091 QR= 2.118865183426176 TP= 2457136.2635948686 OM= 14.38509325254782 W= 50.02664978043313 IN= 5.776267171432991 Equivalent ICRF heliocentric cartesian coordinates (au, au/d): X=-3.357372245618513E-01 Y= 1.927561327914758E+00 Z= 1.079636560826498E+00 VX=-1.357351141654516E-02 VY= 1.254992027179911E-04 VZ= 4.579653437681744E-04 Comet physical (GM= km^3/s^2; RAD= km): GM= n.a. RAD= 1.1 M1= 14.7 M2= n.a. k1= 8. k2= n.a. PHCOF= n.a. Comet non-gravitational force model (AMRAT=m^2/kg;A1-A3=au/d^2;DT=days;R0=au): AMRAT= 0. DT= 0. A1= 0. A2= -3.60836298205E-11 A3= 0. Standard model: ALN= .1112620426 NK= 4.6142 NM= 2.15 NN= 5.093 R0= 2.808 ******************************************************************************* Date__(UT)__HR:MN r rdot ************************************************** $$SOE 2029-Jul-09 00:00 2.151180620468 -0.1228715 2029-Jul-09 03:00 2.151171958754 -0.1170792 2029-Jul-09 06:00 2.151163715226 -0.1112867 2029-Jul-09 09:00 2.151155889894 -0.1054941 2029-Jul-09 12:00 2.151148482765 -0.0997014 2029-Jul-09 15:00 2.151141493848 -0.0939086 2029-Jul-09 18:00 2.151134923149 -0.0881158 2029-Jul-09 21:00 2.151128770675 -0.0823228 2029-Jul-10 00:00 2.151123036434 -0.0765297 2029-Jul-10 03:00 2.151117720430 -0.0707366 2029-Jul-10 06:00 2.151112822670 -0.0649433 2029-Jul-10 09:00 2.151108343159 -0.0591500 2029-Jul-10 12:00 2.151104281901 -0.0533567 2029-Jul-10 15:00 2.151100638900 -0.0475633 2029-Jul-10 18:00 2.151097414161 -0.0417698 2029-Jul-10 21:00 2.151094607686 -0.0359763 2029-Jul-11 00:00 2.151092219479 -0.0301828 2029-Jul-11 03:00 2.151090249543 -0.0243892 2029-Jul-11 06:00 2.151088697878 -0.0185956 2029-Jul-11 09:00 2.151087564488 -0.0128020 2029-Jul-11 12:00 2.151086849372 -0.0070084 2029-Jul-11 15:00 2.151086552533 -0.0012148 2029-Jul-11 18:00 2.151086673969 0.0045789 2029-Jul-11 21:00 2.151087213681 0.0103725 2029-Jul-12 00:00 2.151088171669 0.0161661 2029-Jul-12 03:00 2.151089547932 0.0219597 2029-Jul-12 06:00 2.151091342467 0.0277533 2029-Jul-12 09:00 2.151093555273 0.0335468 2029-Jul-12 12:00 2.151096186348 0.0393403 2029-Jul-12 15:00 2.151099235689 0.0451338 2029-Jul-12 18:00 2.151102703293 0.0509272 2029-Jul-12 21:00 2.151106589156 0.0567206 2029-Jul-13 00:00 2.151110893274 0.0625139 2029-Jul-13 03:00 2.151115615643 0.0683071 2029-Jul-13 06:00 2.151120756257 0.0741003 2029-Jul-13 09:00 2.151126315112 0.0798934 2029-Jul-13 12:00 2.151132292201 0.0856864 2029-Jul-13 15:00 2.151138687518 0.0914793 2029-Jul-13 18:00 2.151145501056 0.0972721 2029-Jul-13 21:00 2.151152732809 0.1030649 2029-Jul-14 00:00 2.151160382769 0.1088575 $$EOE ******************************************************************************* Column meaning: TIME Times PRIOR to 1962 are UT1, a mean-solar time closely related to the prior but now-deprecated GMT. Times AFTER 1962 are in UTC, the current civil or "wall-clock" time-scale. UTC is kept within 0.9 seconds of UT1 using integer leap-seconds for 1972 and later years. Conversion from the internal Barycentric Dynamical Time (TDB) of solar system dynamics to the non-uniform civil UT time-scale requested for output has not been determined for UTC times after the next July or January 1st. Therefore, the last known leap-second is used as a constant over future intervals. Time tags refer to the UT time-scale conversion from TDB on Earth regardless of observer location within the solar system, although clock rates may differ due to the local gravity field and no analog to "UT" may be defined for that location. Any 'b' symbol in the 1st-column denotes a B.C. date. First-column blank (" ") denotes an A.D. date. CALENDAR SYSTEM Mixed calendar mode was active such that calendar dates after AD 1582-Oct-15 (if any) are in the modern Gregorian system. Dates prior to 1582-Oct-5 (if any) are in the Julian calendar system, which is automatically extended for dates prior to its adoption on 45-Jan-1 BC. The Julian calendar is useful for matching historical dates. The Gregorian calendar more accurately corresponds to the Earth's orbital motion and seasons. A "Gregorian-only" calendar mode is available if such physical events are the primary interest. NOTE: "n.a." in output means quantity "not available" at the print-time. 'r rdot' = The Sun's apparent range ("r", light-time aberrated) and range-rate ("rdot") relative to the target center, as seen by the observer. A positive "rdot" means the target center was moving away from the Sun, negative means moving toward the Sun. Units: AU and KM/S Computations by ... Solar System Dynamics Group, Horizons On-Line Ephemeris System 4800 Oak Grove Drive, Jet Propulsion Laboratory Pasadena, CA 91109 USA General site: https://ssd.jpl.nasa.gov/ Mailing list: https://ssd.jpl.nasa.gov/email_list.html System news : https://ssd.jpl.nasa.gov/horizons/news.html User Guide : https://ssd.jpl.nasa.gov/horizons/manual.html Connect : browser https://ssd.jpl.nasa.gov/horizons/app.html#/x API https://ssd-api.jpl.nasa.gov/doc/horizons.html command-line telnet ssd.jpl.nasa.gov 6775 e-mail/batch https://ssd.jpl.nasa.gov/ftp/ssd/horizons_batch.txt scripts https://ssd.jpl.nasa.gov/ftp/ssd/SCRIPTS Author : Jon.D.Giorgini@jpl.nasa.gov ******************************************************************************* !$$SOF COMMAND = '113P' QUANTITIES = '19' START_TIME = '2029-Jul-09' STEP_SIZE = '3 hours' STOP_TIME = '2029-Jul-14'